Regional Weather Roundup
Issued by NWS Albany, NY

Home | Current Version | Previous Version | Graphics & Text | Print | Product List | Glossary Off
Versions: 1 2 3 4 5 6 7 8 9 10 11 12 13 14 15 16 17 18 19 20 21 22 23 24 25 26 27 28 29 30 31 32 33 34 35 36 37 38 39 40 41 42 43 44 45 46 47 48 49 50

000
ASUS41 KALY 280110
RWRALY

NEW YORK STATE HOURLY WEATHER ROUNDUP
NATIONAL WEATHER SERVICE ALBANY NY
900 PM EDT FRI MAR 27 2015

NOTE: "FAIR" INDICATES FEW OR NO CLOUDS BELOW 12,000 FEET WITH NO
SIGNIFICANT WEATHER AND/OR NO OBSTRUCTIONS TO VISIBILITY.

NYZ032-033-038>043-046>054-057>066-NYZ062>081-280200-
EAST


CITY           SKY/WX    TMP DP  RH WIND       PRES   REMARKS
ALBANY         FLURRIES  37  23  56 NW10      29.81R WCI  30
GLENS FALLS    LGT SNOW  33  29  85 N7        29.81R FOG     WCI  27
POUGHKEEPSIE   CLOUDY    41  26  55 N3        29.77R
NEWBURGH       CLOUDY    39  28  65 CALM      29.78R
MONTGOMERY     CLOUDY    39  24  55 NW7       29.77R WCI  34
WHITE PLAINS   CLOUDY    41  27  57 N3        29.76R
ISLIP          CLOUDY    40  32  73 NW3       29.76R
NEW YORK CITY  CLOUDY    44  28  53 N12       29.77R
CENTRAL PARK   CLOUDY    43  25  49 VRB5      29.80R
$$

NYZ005>009-017-018-044>046-055-056-280200-
CENTRAL


CITY           SKY/WX    TMP DP  RH WIND       PRES   REMARKS
FULTON         CLOUDY    24  18  77 N13       29.93R WCI  12
SYRACUSE       FLURRIES  27  22  81 NW9       29.92R WCI  18
ROME           CLOUDY    29  23  78 W12       29.90R WCI  19
ELMIRA         LGT SNOW  30  26  85 NE7       29.87R FOG     WCI  23
BINGHAMTON     CLOUDY    27  23  85 N12       29.80R WCI  17
MONTICELLO     PTCLDY    32  25  74 NW9       29.78R WCI  24
$$

NYZ026>034-041>043-280200-
NORTH


CITY           SKY/WX    TMP DP  RH WIND       PRES   REMARKS
WATERTOWN      FLURRIES  23  18  81 N5        29.95R WCI  17
FORT DRUM      NOT AVBL
MASSENA        LGT SNOW  23  22  96 W8        29.94S FOG     WCI  14
SARANAC LAKE   LGT SNOW  22  20  92 VRB5      29.78S FOG     WCI  16
PLATTSBURGH    CLOUDY    31  26  82 NW6       29.85R WCI  25
$$

NYZ001>004-010>016-019>021-280200-
WEST


CITY           SKY/WX    TMP DP  RH WIND       PRES   REMARKS
NIAGARA FALLS  FLURRIES  22  13  68 NW13      29.99R WCI  10
BUFFALO        CLOUDY    23  15  71 NW10      29.97R WCI  12
DUNKIRK        LGT SNOW  22  20  92 NW12      30.00R FOG     WCI  10
JAMESTOWN      CLOUDY    19  12  73 NW10G17   29.90R WCI   8
WELLSVILLE     FLURRIES  23  17  78 NW7       29.84R WCI  15
ROCHESTER      FLURRIES  27  20  75 NW12      29.95R WCI  17
PENN YAN       CLOUDY    28  22  78 NW8       29.89R WCI  20
$$

             KEY
       WCI = WIND CHILL INDEX
       VSB = VISIBILITY
       HX  = HEAT INDEX
$$



USA.gov is the U.S. government's official web portal to all federal, state and local government web resources and services.